Kailua Kona, HI

7:34 PM HST on February 27, 2017 (GMT -1000)
Kona International At Keahole

Weather History for PHKO - October, 2014

Change the Weather History Date:

Saturday, October 18, 2014

  Actual Average Record
Temperature  
Mean Temperature 77 °F -  
Max Temperature 79 °F 83 °F 93 °F (2000)
Min Temperature 75 °F 72 °F 71 °F (1982)
Cooling Degree Days 12    
Growing Degree Days 27 (Base 50)    
Moisture  
Dew Point 73 °F    
Average Humidity 89    
Maximum Humidity 94    
Minimum Humidity 81    
Precipitation  
Precipitation 0.92 in - - ()
Sea Level Pressure  
Sea Level Pressure 29.96 in    
Wind  
Wind Speed 8 mph (North)    
Max Wind Speed 17 mph    
Max Gust Speed -    
Visibility 8 miles    
Events Rain    
Averages and records for this station are not official NWS values.
T = Trace of Precipitation, MM = Missing Value Source: NWS Daily Summary

Daily Weather History Graph

Daily Weather History Graph

Search for Another Location

Airport or City:

Trip Planner

Search our weather history database for the weather conditions in past years. The results will help you decide how hot, cold, wet, or windy it might be!

Date:

Astronomy

Oct. 18, 2014 Rise Set
Actual Time 6:19 AM HST 5:58 PM HST
Civil Twilight 5:57 AM HST 6:20 PM HST
Nautical Twilight 5:31 AM HST 6:46 PM HST
Astronomical Twilight 5:06 AM HST 7:11 PM HST
Moon 2:05 AM HST (10/18) 2:51 PM HST (10/18)
Length of Visible Light 12h 23m
Length of Day
11h 38m
Waning Crescent, 22% of the Moon is Illuminated
Oct 18
Waning Crescent
Oct 23
New
Oct 30
First Quarter
Nov 6
Full
Nov 14
Last Quarter

Hourly Weather History & Observations

Time (HST) Temp. Dew Point Humidity Pressure Visibility Wind Dir Wind Speed Gust Speed Precip Events Conditions
12:53 AM 78.1 °F 73.9 °F 87% 29.91 in 10.0 mi North 9.2 mph - 0.01 in   Mostly Cloudy
1:53 AM 79.0 °F 73.0 °F 82% 29.89 in 10.0 mi North 9.2 mph - N/A   Partly Cloudy
2:53 AM 77.0 °F 73.0 °F 88% 29.90 in 10.0 mi North 4.6 mph - 0.03 in Rain Light Rain
3:53 AM 77.0 °F 73.0 °F 88% 29.89 in 10.0 mi NW 4.6 mph - 0.01 in   Overcast
4:53 AM 77.0 °F 73.0 °F 88% 29.94 in 8.0 mi ESE 12.7 mph - 0.03 in Rain Rain
5:37 AM 75.2 °F 73.4 °F 94% 29.95 in 2.5 mi ESE 9.2 mph - 0.19 in Rain Heavy Rain
5:46 AM 75.2 °F 73.4 °F 94% 29.93 in 4.0 mi ENE 3.5 mph - 0.22 in Rain Rain
5:53 AM 75.0 °F 73.0 °F 94% 29.92 in 4.0 mi North 6.9 mph - 0.24 in Rain Heavy Rain
6:53 AM 75.9 °F 72.0 °F 87% 29.95 in 9.0 mi NNW 5.8 mph - 0.02 in Rain Light Rain
7:53 AM 75.0 °F 73.0 °F 94% 29.99 in 3.0 mi Calm Calm - 0.07 in Rain Heavy Rain
8:18 AM 75.2 °F 73.4 °F 94% 30.00 in 1.8 mi Calm Calm - 0.10 in Rain Heavy Rain
8:37 AM 75.2 °F 73.4 °F 94% 30.01 in 3.0 mi ENE 4.6 mph - 0.19 in Rain Rain
8:53 AM 75.0 °F 73.0 °F 94% 30.01 in 8.0 mi Calm Calm - 0.20 in Rain Light Rain
9:53 AM 75.0 °F 72.0 °F 90% 30.01 in 10.0 mi North 12.7 mph - 0.11 in Rain Light Rain
10:53 AM 75.9 °F 72.0 °F 87% 30.01 in 10.0 mi North 11.5 mph - 0.09 in Rain Light Rain
11:53 AM 79.0 °F 73.0 °F 82% 29.99 in 10.0 mi North 9.2 mph - 0.00 in   Overcast
12:53 PM 79.0 °F 75.0 °F 88% 29.97 in 10.0 mi NNE 8.1 mph - 0.01 in Rain Light Rain
1:53 PM 78.1 °F 73.0 °F 84% 29.96 in 10.0 mi North 10.4 mph - 0.07 in Rain Light Rain
2:53 PM 77.0 °F 73.9 °F 90% 29.92 in 10.0 mi North 17.3 mph - 0.02 in Rain Light Rain
3:53 PM 78.1 °F 73.9 °F 87% 29.94 in 10.0 mi NNW 12.7 mph - 0.01 in Rain Light Rain
4:53 PM 79.0 °F 75.0 °F 88% 29.94 in 10.0 mi NE 4.6 mph - 0.00 in Rain Light Rain
5:53 PM 78.1 °F 75.0 °F 90% 29.97 in 10.0 mi WNW 3.5 mph - 0.00 in   Overcast
6:53 PM 77.0 °F 75.0 °F 94% 29.97 in 10.0 mi NNE 6.9 mph - N/A   Clear
7:53 PM 77.0 °F 73.9 °F 90% 29.96 in 10.0 mi North 17.3 mph - N/A   Clear
8:53 PM 78.1 °F 73.9 °F 87% 30.01 in 10.0 mi NNW 10.4 mph - N/A   Clear
9:53 PM 78.1 °F 73.9 °F 87% 30.04 in 10.0 mi NNE 5.8 mph - N/A   Partly Cloudy
10:53 PM 78.1 °F 72.0 °F 81% 30.01 in 10.0 mi NNE 9.2 mph - N/A   Overcast
11:53 PM 78.1 °F 72.0 °F 81% 29.99 in 10.0 mi NNE 11.5 mph - N/A   Overcast